Find OneWeb SL0650

NORAD ID: 55813 Int'l Des: 2023-029 Owner: ONEWEBN Country: UK Constellation: oneweb operational
LEOCIRCULARPOLARONEWEB_TYPE

現在のビュー

3D地球を読み込み中...

About OneWeb SL0650

OneWeb SL0650 (NORAD 55813) is a oneweb constellation satellite launched Mar 9, 2023 by ONEWEBN of UK. It operates in LEO, CIRCULAR, POLAR, ONEWEB_TYPE orbit with a mass of 148.00 kg.

OneWeb SL0650について

説明を読み込み中...

次回通過

Passes for default location (London). Set your location on the main map for personalized predictions.

高度履歴

Loading altitude history...

軌道要素

1 55813U 23029T 26170.80713204 -.00002322 00000-0 -58344-2 0 9996
2 55813 87.9166 304.4545 0001466 126.2485 233.8784 13.19706559159243
Epoch: Jun 19, 2026 • Age: 8 hours

現在のステータス

高度 1190.4 km
速度 7.26 km/s
衛星直下点 -11.11°S, 162.21°E
打ち上げ日 Mar 9, 2023
運用期間 3.2 years
タイプ internet

技術仕様

分類 Payload
質量 148.00 kg
乾燥質量 140.00 kg
総質量 148.00 kg
長さ 1.30 m
直径 1.00 m
スパン 5.00 m
形状 Trapezoid+2 pan
製造者 ONEWUS
バスタイプ ARROW
フェーズステータス In Orbit
所有者/国 ONEWEBN/UK

Most Searched